Simultaneous Nadir Overpasses (SNOs) Predictions

Prediction of SNOs between GOES-15 and NPP Satellite Orbit:

Table of predicted SNOs for the next 14.0 days since TLE Epoch: 9/14/2012
Index Date Time (GOES-15) GOES-15 Lat,Lon NPP Lat,Lon Distance(km) Time Diff (sec)
1 09/15/2012 10:12:30 0.35,-135.05 -0.31,-132.07 340.02 80
2 09/16/2012 22:31:46 -0.33,-135.07 -0.85,-137.38 263.32 80
3 09/17/2012 22:15:40 -0.34,-135.10 0.13,-132.84 256.44 80
4 09/19/2012 10:34:49 0.32,-135.16 0.97,-138.13 337.14 80
5 09/20/2012 10:18:43 0.33,-135.18 -0.02,-133.59 181.71 80
6 09/21/2012 22:38:00 -0.30,-135.18 -1.15,-138.90 423.97 80
7 09/22/2012 22:21:55 -0.31,-135.20 -0.11,-134.37 94.68 80
8 09/24/2012 10:41:02 0.28,-135.26 1.28,-139.64 499.81 80
9 09/25/2012 10:24:58 0.29,-135.27 0.24,-135.12 18.53 80
10 09/27/2012 22:25:29 -0.28,-135.28 -0.44,-135.88 69.92 80




NCC Satellite Simultaneous Nadir Overpasses (SNOs) Prediction Service
